Weather in Olenevka

Russia / Republic of Crimea     45°22′39″N   32°31′54″E
temp.,
°C
wind,
m/s
gust,
m/s
humid.,
%
clouds,
%
prec.,
mm/h
press.,
hPa
HPBL,
m
2 march, tue
tue200:00+5ne666952 0.1 1030966
03:00+4nne666971 0.1 1031891
06:00+4nne566430 0.0 1031999
09:00+3n336218 0.0 1031931
12:00+3nw447287 0.0 1031741
15:00+4w676759 0.0 1029896
18:00+4w89734 0.0 1027699
21:00+6wsw10117840 0.0 1026631
3 march, wed
wed300:00+7w11147834 0.0 1024588
03:00+5nnw11128342 0.0 1024645
06:00+4n10117768 0.1 10251050
09:00+5n10117168 0.1 1027963
12:00+5nnw79730 0.0 1028686
15:00+6nw78700 0.0 1028622
18:00+6wnw77710 0.0 1028412
21:00+6wnw557236 0.0 1029240
4 march, thu
thu400:00+6w457447 0.0 1028210
03:00+6wsw567623 0.0 1028393
06:00+6sw67750 0.0 1025506
09:00+7sw79760 0.0 1025574
12:00+7sw911780 0.0 1023564
15:00+7ssw912800 0.0 1021550
18:00+7ssw1013790 0.0 1018541
21:00+7ssw1114780 0.0 1018534
5 march, fri
fri500:00+7ssw1114790 0.0 1017491
03:00+7ssw1014830 0.0 1016456
06:00+7ssw1013846 0.0 1014409
09:00+8ssw1014864 0.0 1014391
12:00+8ssw1014854 0.0 1012360
15:00+8ssw1014879 0.0 1011325
18:00+8sw8128623 0.0 1010211
21:00+8sw7108552 0.0 1012143
6 march, sat
sat600:00+9w567631 0.0 101352
03:00+6n10108832 0.0 1014293
06:00+5nne9118673 0.0 1016519
09:00+4nne999387 0.1 1018428
12:00+3nne91079100 0.0 1019713
15:00+4n8962100 0.0 10201059
18:00+5n8952100 0.0 10221444
21:00+5n9948100 0.0 10251881